Content
SEND FEEDBACK

Daily
Averages
Monthly
Summary
United Kingdom

LONDON - CAMDEN, ENGLAND


Home > Europe > United Kingdom > England
Elevation: 449 feet     Latitude: 51 34N     Longitude: 000 11W

WEATHER
 
SELECT A DAY
Number of Records: 150,471;   Date Range: 7/1/96 - 9/19/14
 
SHARE

PRINT THIS DATA

[ ← Previous Day ]
WEATHER ALMANAC - FEBRUARY 21, 2014
[ Next Day → ]
[ °C ]   °F
Weather ElementAverageHighLow
Temperature43.4 °F50 °F (2:50 pm)37 °F (6:00 am)
Dewpoint33.8 °F37.4 °F (12:50 am)28.4 °F (1:50 pm)
Humidity66.8 %93 % (12:50 am)32 % (3:00 pm)
Barometer29.62 in29.67 in (11:00 am)29.56 in (12:50 am)
Wind Speed12 mph23 mph (12:50 pm)
Weather ElementAverage
Visibility16.7 mi
Wind DirectionWSW (240.2 °)

Weather ElementTotal
Precipitation---
Heating Degree Days21.5 (Base 65)
Averaged from 47 records on February 21, 2014
WEATHER CONDITIONS BREAKOUT
WIND DIRECTION BREAKOUT
WEATHER BY HOUR - FEBRUARY 21, 2014
[ °C ]   °F
Local TimeTemperatureDewpointHumidityBarometerVisibilityWind DirectionWind SpeedGust SpeedPrecipitationEventsConditions
12:50 AM39.2 °F37.4 °F93 %29.56 in6.2 miSW (220°)5.8 mphScattered Clouds
1:00 AM40.0 °F37.0 °F84 %29.57 in22.0 miSW (220°)5.8 mphScattered Clouds
1:50 AM39.2 °F35.6 °F87 %29.56 in6.2 miWSW (250°)8.1 mphScattered Clouds
2:00 AM39.0 °F36.0 °F85 %29.58 in25.0 miWSW (250°)8.1 mphScattered Clouds
2:50 AM39.2 °F35.6 °F87 %29.56 in6.2 miWSW (250°)6.9 mphPartly Cloudy
3:00 AM39.0 °F35.0 °F82 %29.58 in34.0 miWSW (250°)6.9 mphScattered Clouds
3:50 AM37.4 °F35.6 °F93 %29.56 in6.2 miWest (270°)6.9 mphPartly Cloudy
4:00 AM38.0 °F35.0 °F83 %29.59 in28.0 miWest (270°)6.9 mphScattered Clouds
4:50 AM37.4 °F33.8 °F87 %29.59 in6.2 miWest (260°)6.9 mph
5:00 AM38.0 °F34.0 °F81 %29.60 in34.0 miWest (260°)6.9 mph
5:50 AM37.4 °F33.8 °F87 %29.59 in6.2 miWSW (240°)5.8 mph
6:00 AM37.0 °F33.0 °F82 %29.62 in34.0 miWSW (240°)5.8 mph
6:50 AM37.4 °F33.8 °F87 %29.59 inSW (230°)8.1 mphClear
7:00 AM38.0 °F33.0 °F77 %29.62 in12.0 miSW (230°)8.1 mphScattered Clouds
7:50 AM39.2 °F33.8 °F81 %29.62 in6.2 miWSW (240°)10.4 mphPartly Cloudy
8:00 AM39.0 °F34.0 °F75 %29.64 in25.0 miWSW (240°)10.4 mphScattered Clouds
8:50 AM41.0 °F33.8 °F76 %29.65 in6.2 miWSW (250°)10.4 mphPartly Cloudy
9:00 AM42.0 °F34.0 °F66 %29.66 in25.0 miWSW (250°)10.4 mphScattered Clouds
9:50 AM44.6 °F33.8 °F66 %29.65 in6.2 miWSW (250°)12.7 mphPartly Cloudy
10:00 AM45.0 °F34.0 °F55 %29.66 in25.0 miWSW (250°)12.7 mphScattered Clouds
10:50 AM46.4 °F33.8 °F62 %29.65 in6.2 miWSW (240°)15.0 mphScattered Clouds
11:00 AM47.0 °F33.0 °F47 %29.67 in25.0 miWSW (240°)15.0 mphPartly Cloudy
11:50 AM48.2 °F32.0 °F54 %29.65 in6.2 miWSW (250°)20.7 mphScattered Clouds
12:00 PM49.0 °F31.0 °F38 %29.67 in25.0 miWSW (250°)20.7 mphPartly Cloudy
12:50 PM48.2 °F30.2 °F50 %29.62 in6.2 miWSW (240°)23.0 mphScattered Clouds
1:00 PM49.0 °F30.0 °F36 %29.65 in25.0 miWSW (240°)23.0 mphPartly Cloudy
1:50 PM48.2 °F28.4 °F46 %29.62 in6.2 miWest (260°)16.1 mphPartly Cloudy
2:00 PM49.0 °F29.0 °F34 %29.64 in31.0 miWest (260°)16.1 mphScattered Clouds
2:50 PM50.0 °F28.4 °F43 %29.62 in6.2 miWSW (240°)18.4 mphPartly Cloudy
3:00 PM50.0 °F29.0 °F32 %29.63 in31.0 miWSW (240°)18.4 mphScattered Clouds
3:50 PM50.0 °F32.0 °F50 %29.62 in6.2 miWSW (240°)16.1 mphPartly Cloudy
4:00 PM49.0 °F31.0 °F38 %29.63 in31.0 miWSW (240°)16.1 mphPartly Cloudy
4:50 PM46.4 °F33.8 °F62 %29.62 in6.2 miSW (230°)15.0 mphScattered Clouds
5:00 PM47.0 °F33.0 °F47 %29.64 in31.0 miSW (230°)15.0 mphMostly Cloudy
5:50 PM44.6 °F37.4 °F76 %29.65 in6.2 miWSW (240°)10.4 mphScattered Clouds
6:00 PM44.0 °F36.0 °F66 %29.65 in25.0 miWSW (240°)10.4 mphRainLight Rain Showers
6:50 PM44.6 °F33.8 °F66 %29.65 in6.2 miWSW (240°)13.8 mphScattered Clouds
7:00 PM45.0 °F34.0 °F56 %29.66 in31.0 miWSW (240°)13.8 mphPartly Cloudy
7:50 PM44.6 °F33.8 °F66 %29.62 in6.2 miSW (230°)11.5 mphScattered Clouds
8:00 PM44.0 °F34.0 °F58 %29.65 in31.0 miSW (230°)11.5 mphScattered Clouds
8:50 PM44.6 °F35.6 °F71 %29.62 in6.2 miSW (230°)12.7 mphMostly Cloudy
9:00 PM44.0 °F35.0 °F63 %29.65 in25.0 miSW (230°)12.7 mphScattered Clouds
9:50 PM42.8 °F37.4 °F81 %29.62 in6.2 miSW (220°)12.7 mphMostly Cloudy
10:00 PM44.0 °F36.0 °F66 %29.65 in25.0 miSW (220°)12.7 mphScattered Clouds
10:50 PM42.8 °F37.4 °F81 %29.62 in6.2 miSSW (210°)10.4 mphMostly Cloudy
11:00 PM44.0 °F36.0 °F66 %29.65 in25.0 miSSW (210°)10.4 mphScattered Clouds
11:50 PM44.6 °F35.6 °F71 %29.62 in6.2 miSW (230°)10.4 mphMostly Cloudy
Hourly data recorded from EGWU, located miles away from London - Camden, England







STORIES FROM OUR PARTNERS